UAL1302 KSAN-KSFO

Flight info

Callsign UAL1302
Flight time N/A
Altitude 34000
Route PADRZ2 IKAYE RIZIN SPLNT STOKD SERFR SERFR4
Aircraft B739/M-SDE2E3FGHIRWXY/LB1

Departure

Time 2026-05-05 01:01
Airport San Diego International Airport (KSAN)

Arrival

Time N/A
Airport San Francisco International Airport (KSFO)
Time Latitude Longitude Altitude Speed Heading
2026-05-05 00:20 32.73453 -117.20348 20 ft 0 kts 230°
2026-05-05 00:50 32.73457 -117.20342 20 ft 2 kts 231°
2026-05-05 00:50 32.73465 -117.20331 20 ft 0 kts 230°
2026-05-05 00:51 32.73474 -117.20320 20 ft 2 kts 206°
2026-05-05 00:51 32.73489 -117.20315 20 ft 2 kts 182°
2026-05-05 00:51 32.73504 -117.20318 20 ft 2 kts 155°
2026-05-05 00:51 32.73516 -117.20328 20 ft 2 kts 129°
2026-05-05 00:52 32.73522 -117.20341 20 ft 0 kts 109°
2026-05-05 00:52 32.73524 -117.20349 20 ft 0 kts 106°
2026-05-05 00:54 32.73524 -117.20348 20 ft 2 kts 106°
2026-05-05 00:54 32.73512 -117.20283 20 ft 10 kts 85°
2026-05-05 00:54 32.73546 -117.20204 20 ft 11 kts 78°
2026-05-05 00:55 32.73526 -117.20094 20 ft 16 kts 106°
2026-05-05 00:55 32.73492 -117.19957 20 ft 17 kts 105°
2026-05-05 00:55 32.73459 -117.19813 20 ft 17 kts 104°
2026-05-05 00:55 32.73429 -117.19687 21 ft 15 kts 107°
2026-05-05 00:56 32.73399 -117.19572 22 ft 14 kts 106°
2026-05-05 00:56 32.73369 -117.19443 23 ft 17 kts 106°
2026-05-05 00:56 32.73332 -117.19290 23 ft 21 kts 106°
2026-05-05 00:56 32.73288 -117.19109 22 ft 24 kts 106°
2026-05-05 00:57 32.73239 -117.18909 22 ft 24 kts 105°
2026-05-05 00:57 32.73194 -117.18717 21 ft 23 kts 107°
2026-05-05 00:57 32.73149 -117.18536 20 ft 21 kts 106°
2026-05-05 00:57 32.73108 -117.18368 20 ft 20 kts 105°
2026-05-05 00:58 32.73070 -117.18211 20 ft 19 kts 105°
2026-05-05 00:58 32.73033 -117.18064 20 ft 17 kts 107°
2026-05-05 00:58 32.73002 -117.17929 22 ft 15 kts 106°
2026-05-05 00:58 32.72974 -117.17815 23 ft 13 kts 105°
2026-05-05 00:59 32.72954 -117.17722 25 ft 10 kts 100°
2026-05-05 00:59 32.72962 -117.17651 26 ft 8 kts 68°
2026-05-05 00:59 32.73017 -117.17627 27 ft 10 kts 335°
2026-05-05 00:59 32.73048 -117.17695 26 ft 2 kts 286°
2026-05-05 01:00 32.73051 -117.17708 26 ft 4 kts 286°
2026-05-05 01:00 32.73093 -117.17886 24 ft 55 kts 285°
2026-05-05 01:00 32.73275 -117.18642 23 ft 132 kts 285°
2026-05-05 01:00 32.73600 -117.19906 239 ft 177 kts 285°
2026-05-05 01:01 32.73976 -117.21385 826 ft 202 kts 285°
2026-05-05 01:01 32.74636 -117.23002 1430 ft 233 kts 303°
2026-05-05 01:01 32.75668 -117.24654 1945 ft 267 kts 304°
2026-05-05 01:01 32.76781 -117.26479 2251 ft 276 kts 304°
2026-05-05 01:02 32.77923 -117.28382 3177 ft 281 kts 304°
2026-05-05 01:02 32.79011 -117.30218 4447 ft 272 kts 303°
2026-05-05 01:02 32.80064 -117.32014 5724 ft 262 kts 304°
2026-05-05 01:02 32.81136 -117.33723 6713 ft 262 kts 306°
2026-05-05 01:03 32.82274 -117.35453 7547 ft 268 kts 306°
2026-05-05 01:03 32.83426 -117.37202 8423 ft 271 kts 305°
2026-05-05 01:03 32.84592 -117.38993 9274 ft 274 kts 304°
2026-05-05 01:03 32.85759 -117.40806 10051 ft 280 kts 304°
2026-05-05 01:04 32.86961 -117.42674 10646 ft 292 kts 304°
2026-05-05 01:04 32.89563 -117.46729 11648 ft 321 kts 304°
2026-05-05 01:04 32.90945 -117.48882 12116 ft 336 kts 304°
2026-05-05 01:05 32.92392 -117.51129 12884 ft 340 kts 304°
2026-05-05 01:05 32.93830 -117.53365 13712 ft 344 kts 304°
2026-05-05 01:05 32.95292 -117.55636 14471 ft 347 kts 304°
2026-05-05 01:05 32.96773 -117.57940 15185 ft 351 kts 304°
2026-05-05 01:06 32.98271 -117.60274 15905 ft 354 kts 303°
2026-05-05 01:06 32.99767 -117.62608 16596 ft 358 kts 303°
2026-05-05 01:06 33.01281 -117.64973 17261 ft 362 kts 302°
2026-05-05 01:06 33.02828 -117.67394 17916 ft 365 kts 302°
2026-05-05 01:07 33.04370 -117.69800 18675 ft 366 kts 302°
2026-05-05 01:07 33.05978 -117.72188 19287 ft 371 kts 304°
2026-05-05 01:07 33.07787 -117.74453 19927 ft 378 kts 309°
2026-05-05 01:07 33.09753 -117.76563 20635 ft 381 kts 311°
2026-05-05 01:08 33.11813 -117.78656 21038 ft 390 kts 312°
2026-05-05 01:08 33.13904 -117.80735 21772 ft 388 kts 312°
2026-05-05 01:08 33.15978 -117.82792 22498 ft 386 kts 311°
2026-05-05 01:08 33.18071 -117.84889 22796 ft 395 kts 310°
2026-05-05 01:09 33.20196 -117.87051 23431 ft 394 kts 309°
2026-05-05 01:09 33.22181 -117.89250 23911 ft 394 kts 306°
2026-05-05 01:09 33.24143 -117.91585 24314 ft 397 kts 304°
2026-05-05 01:09 33.26105 -117.93984 24768 ft 401 kts 303°
2026-05-05 01:10 33.28057 -117.96376 25224 ft 403 kts 303°
2026-05-05 01:10 33.30038 -117.98792 25678 ft 406 kts 303°
2026-05-05 01:10 33.32062 -118.01247 26020 ft 412 kts 303°
2026-05-05 01:10 33.34103 -118.03709 26337 ft 418 kts 303°
2026-05-05 01:11 33.36173 -118.06200 26796 ft 420 kts 303°
2026-05-05 01:11 33.38244 -118.08691 27053 ft 426 kts 303°
2026-05-05 01:11 33.40338 -118.11196 27649 ft 424 kts 302°
2026-05-05 01:11 33.42458 -118.13739 27904 ft 430 kts 302°
2026-05-05 01:12 33.44564 -118.16262 28340 ft 431 kts 302°
2026-05-05 01:12 33.46706 -118.18837 28631 ft 436 kts 301°
2026-05-05 01:12 33.48870 -118.21441 29010 ft 438 kts 301°
2026-05-05 01:12 33.51009 -118.24002 29584 ft 434 kts 301°
2026-05-05 01:13 33.53048 -118.26438 30043 ft 433 kts 300°
2026-05-05 01:13 33.55175 -118.29002 30225 ft 438 kts 301°
2026-05-05 01:13 33.57322 -118.31591 30711 ft 435 kts 300°
2026-05-05 01:13 33.59463 -118.34152 31326 ft 429 kts 300°
2026-05-05 01:14 33.61570 -118.36691 31638 ft 429 kts 300°
2026-05-05 01:14 33.63683 -118.39243 31915 ft 431 kts 300°
2026-05-05 01:14 33.65800 -118.41803 32280 ft 430 kts 300°
2026-05-05 01:14 33.67921 -118.44374 32522 ft 433 kts 300°
2026-05-05 01:15 33.70058 -118.46970 32823 ft 433 kts 299°
2026-05-05 01:15 33.72176 -118.49540 33140 ft 433 kts 300°
2026-05-05 01:15 33.74300 -118.52108 33733 ft 428 kts 300°
2026-05-05 01:15 33.76396 -118.54640 33989 ft 428 kts 300°
2026-05-05 01:16 33.80573 -118.59712 34010 ft 429 kts 301°
2026-05-05 01:16 33.84811 -118.64880 34008 ft 430 kts 301°
2026-05-05 01:17 33.89041 -118.70039 34008 ft 431 kts 301°
2026-05-05 01:17 33.93267 -118.75190 33931 ft 428 kts 301°
2026-05-05 01:18 33.97445 -118.80288 34004 ft 427 kts 301°
2026-05-05 01:18 34.01619 -118.85397 34009 ft 427 kts 301°
2026-05-05 01:19 34.05810 -118.90540 34007 ft 430 kts 302°
2026-05-05 01:19 34.10041 -118.95744 34006 ft 428 kts 302°
2026-05-05 01:20 34.14059 -119.00994 34010 ft 417 kts 296°
2026-05-05 01:20 34.17320 -119.06624 34003 ft 408 kts 291°
2026-05-05 01:21 34.20306 -119.12454 34003 ft 407 kts 290°
2026-05-05 01:21 34.23305 -119.18360 34006 ft 408 kts 290°
2026-05-05 01:22 34.26292 -119.24208 34007 ft 411 kts 290°
2026-05-05 01:22 34.29295 -119.30080 34003 ft 411 kts 291°
2026-05-05 01:23 34.32326 -119.35989 34006 ft 410 kts 291°
2026-05-05 01:23 34.35317 -119.41827 34012 ft 409 kts 291°
2026-05-05 01:24 34.38337 -119.47763 34003 ft 412 kts 291°
2026-05-05 01:24 34.41515 -119.53543 34006 ft 418 kts 297°
2026-05-05 01:25 34.45492 -119.58928 34001 ft 430 kts 304°
2026-05-05 01:25 34.49734 -119.64053 33996 ft 434 kts 305°
2026-05-05 01:26 34.54027 -119.69201 34015 ft 429 kts 305°
2026-05-05 01:26 34.58277 -119.74366 34002 ft 430 kts 305°
2026-05-05 01:27 34.62472 -119.79514 34019 ft 430 kts 305°
2026-05-05 01:27 34.66698 -119.84737 34005 ft 429 kts 305°
2026-05-05 01:28 34.70889 -119.89925 34010 ft 428 kts 305°
2026-05-05 01:28 34.75087 -119.95138 34004 ft 428 kts 305°
2026-05-05 01:29 34.79319 -120.00402 33987 ft 427 kts 305°
2026-05-05 01:29 34.83491 -120.05589 33989 ft 428 kts 306°
2026-05-05 01:30 34.87656 -120.10789 33996 ft 431 kts 306°
2026-05-05 01:30 34.91842 -120.16011 34007 ft 428 kts 306°
2026-05-05 01:31 34.96034 -120.21253 34011 ft 430 kts 306°
2026-05-05 01:31 35.00180 -120.26448 34014 ft 426 kts 306°